Location: ??????????
(53.2167°N, 54.3667°E)
Time: 23:00:53
(UTC+00:00)

Daily predictions for brighter satellites

Satellite Brightness Start Highest point End
(mag) Time Altitude Azimuth Time Altitude Azimuth Time Altitude Azimuth
Cosmos 2016 Rocket 4.4 17:30:13 10° N 17:36:25 54° ENE 17:42:38 10° SSE
GEOS 3 Rocket 4.4 17:33:46 10° NE 17:38:54 60° NW 17:44:05 10° WSW
USA 59 Rocket 2.0 17:40:25 10° NNW 17:42:34 17° NNE 17:44:56 10° ENE
Okean-O 4.0 17:38:32 10° SSW 17:42:35 36° W 17:46:39 10° NNW
Cosmos 1953 3.5 17:40:07 10° N 17:43:21 26° ENE 17:46:33 10° SE
Cosmos 1633 Rocket 3.6 17:40:27 10° NNW 17:44:42 58° W 17:48:56 10° S
Cosmos 1818 3.8 17:39:38 10° SSW 17:44:52 50° ESE 17:50:08 10° NE
Lacrosse 4 Rocket 1.7 17:44:15 10° NW 17:48:25 64° WSW 17:52:36 10° SSE
Cosmos 2297 Rocket 2.4 17:46:28 10° SW 17:52:09 81° WNW 17:57:52 10° NNE
Ariane Rocket 3.2 17:50:44 10° S 17:55:49 75° WSW 18:00:56 10° NNW
Cosmos 614 Rocket 4.0 17:51:08 10° SSW 17:56:18 89° ESE 18:01:28 10° NNE
BREEZE-M R/B 2.9 17:54:31 10° WSW 17:56:36 28° S 17:58:10 10° ESE
SPOT 3 Rocket 3.9 17:54:32 10° S 17:59:38 66° WSW 18:04:48 10° NNW
Cosmos 1328 Rocket 4.1 17:55:54 10° SSW 18:00:14 60° WNW 18:04:37 10° N
Cosmos 2173 Rocket 4.2 17:54:52 10° NNW 18:01:04 73° W 18:07:09 10° S
USA 305 3.0 17:58:29 10° SSW 18:01:58 33° SSE 18:04:57 10° E
Cosmos 1470 Rocket 4.1 18:00:51 10° NNW 18:05:06 55° W 18:09:20 10° S
Meteor 1-13 Rocket 4.4 17:59:27 10° S 18:05:24 83° E 18:11:17 10° NNE
GP-B 3.6 18:01:11 10° NNE 18:05:24 45° E 18:09:34 10° SSE
Cosmos 1455 3.7 18:05:06 10° NW 18:07:11 20° W 18:09:18 10° SW
Cosmos 1727 Rocket 4.5 18:05:16 10° SSW 18:11:22 63° WNW 18:17:32 10° N
Cosmos 1758 4.3 18:08:53 10° NNW 18:12:24 39° W 18:15:53 10° SSW
SL-16 R/B 2.3 18:06:46 10° NW 18:12:27 76° WSW 18:17:56 11° SSE
Cosmos 1992 Rocket 4.4 18:07:47 10° NNW 18:12:53 56° WSW 18:17:56 10° S
Cosmos 2084 Rocket 4.0 18:09:40 10° WNW 18:13:40 45° SW 18:17:20 12° SSE
Cosmos 2233 Rocket 4.2 18:07:58 10° N 18:14:17 70° ENE 18:20:28 11° SSE
Cosmos 1933 Rocket 3.6 18:11:51 10° NNW 18:16:16 84° W 18:20:37 10° S
Meteor 1-23 Rocket 4.3 18:12:05 10° S 18:17:36 67° E 18:23:11 10° NNE
COSMOS 2455 4.1 18:12:50 10° NW 18:18:06 32° WSW 18:23:21 10° S
Cosmos 2227 Rocket 2.2 18:15:01 10° SSW 18:20:39 85° ESE 18:26:22 10° NNE
ATLAS CENTAUR R/B 2.8 18:17:58 10° WNW 18:21:04 23° WSW 18:24:05 10° S
Aureole 3 Rocket 4.5 18:19:57 10° NNE 18:22:05 17° ENE 18:24:22 10° ESE
Terra 4.0 18:19:20 10° SW 18:22:48 20° W 18:26:16 10° NW
Meteor 1-16 Rocket 4.4 18:17:04 10° N 18:22:50 76° ENE 18:28:23 12° SSE
Meteor 1-21 4.4 18:18:03 10° S 18:23:39 61° E 18:29:20 10° NNE
Cosmos 2263 Rocket 2.4 18:20:03 10° S 18:25:33 53° ESE 18:31:05 10° NE
NOSS 3 (A) 4.4 18:23:16 10° NW 18:25:36 59° SW 18:27:56 15° SSE
Cosmos 1725 Rocket 4.2 18:19:43 10° NNW 18:26:00 74° W 18:32:17 10° S
ALOS 2 4.3 18:23:03 10° ESE 18:26:30 23° ENE 18:29:58 10° N
Cosmos 1515 Rocket 3.8 18:22:24 10° SSW 18:26:49 72° WNW 18:31:17 10° N
Cosmos 1733 Rocket 3.9 18:23:18 10° N 18:27:26 38° ENE 18:31:07 12° SE
DELTA 2 DEB (DPAF) 4.1 18:26:06 10° NNE 18:29:54 49° E 18:33:21 12° S
Cosmos 1869 Rocket 3.6 18:26:08 10° NNW 18:30:34 89° WNW 18:34:31 13° S
Cosmos 1943 3.5 18:28:29 10° NNW 18:34:12 68° NE 18:39:33 12° SE
RESURS DK-1 2.2 18:30:50 10° SSW 18:34:50 79° ESE 18:38:52 10° NE
ASTEX 1 4.1 18:35:05 10° NNE 18:39:47 40° E 18:43:40 14° SSE
Okean 3 3.9 18:39:13 14° SSE 18:42:26 45° E 18:46:21 10° NNE
Okean 2 3.8 18:39:32 15° SSE 18:42:32 44° E 18:46:16 10° NNE
SeaSat 1 4.0 18:40:24 10° ESE 18:44:41 31° NE 18:48:59 10° NNW
Cosmos 2219 3.3 18:40:15 10° SSW 18:45:55 65° ESE 18:51:38 10° NE
Geosat 4.0 18:42:38 10° NE 18:47:40 76° ESE 18:52:40 10° SSW
Cosmos 1763 Rocket 3.9 18:42:56 10° NNW 18:48:03 57° ENE 18:52:35 13° SE
Cosmos 2123 Rocket 4.5 18:44:13 10° SSW 18:50:26 63° WNW 18:56:39 10° N
Meteor 2-16 Rocket 4.5 18:44:47 10° S 18:50:47 77° E 18:56:53 10° NNE
COBE Rocket 4.0 18:46:11 10° NNE 18:51:18 87° WNW 18:56:16 10° SSW
Cosmos 1603 4.2 18:45:58 10° NNW 18:51:30 54° NE 18:57:00 10° SE
Cosmos 1437 Rocket 3.6 18:48:19 10° SW 18:51:43 43° WNW 18:55:10 10° N
Cosmos 2082 3.8 18:49:54 10° SSW 18:55:30 59° ESE 19:01:09 10° NE
Cosmos 2292 Rocket 3.1 18:55:36 19° SSE 18:57:21 43° E 19:00:10 10° NNE
MetOp-A 3.9 18:54:57 15° SSE 18:58:52 72° ENE 19:03:21 10° NNW
NOSS 3-1 (C) 4.0 18:53:39 10° NW 19:00:31 85° SW 19:08:54 11° SE
Cosmos 1862 Rocket 4.1 18:57:29 16° SSE 19:00:41 44° E 19:04:53 10° NNE
NOSS 2-1 (C) 4.4 18:58:18 10° NW 19:01:17 35° NNE 19:04:56 10° E
Cosmos 2061 Rocket 4.4 18:57:48 10° NNW 19:03:59 61° W 19:09:42 12° S
ARIANE 5 R/B 2.6 19:06:02 17° SSE 19:09:26 84° ENE 19:13:57 10° NNW
Okean 1-7 3.8 19:06:59 17° SSE 19:09:39 36° E 19:13:27 10° NNE
SWAS 4.3 19:06:27 10° NW 19:10:32 77° WSW 19:13:26 18° SSE
Cosmos 1271 Rocket 4.4 19:08:47 13° SE 19:10:39 19° E 19:13:16 10° NE
USA 290 2.2 19:08:52 12° SSW 19:11:49 82° WNW 19:15:03 10° NNE
Cosmos 1140 Rocket 3.4 19:07:05 11° SSW 19:12:02 73° ESE 19:17:10 10° NNE
Spot 4 3.9 19:12:36 17° SSE 19:16:20 74° ENE 19:21:11 10° NNW
SL-4 R/B 2.8 19:14:35 10° SSW 19:18:09 28° SSE 19:21:37 10° E
Cosmos 1953 3.5 19:15:17 10° NNW 19:18:38 31° W 19:21:37 12° SSW
NOSS 3-4 (A) 4.5 19:13:18 10° W 19:18:40 47° NNW 19:24:47 10° NE
NOSS 3-4 (C) 4.5 19:13:23 10° W 19:18:46 47° NNW 19:24:52 10° NE
DNEPR-1 R/B 4.0 19:18:02 10° SW 19:23:47 84° NW 19:28:34 10° NE
Cosmos 1023 Rocket 4.5 19:20:49 10° SSW 19:25:55 85° WNW 19:31:02 10° NNE
SJ 16-02 3.5 19:25:58 10° ESE 19:27:54 13° E 19:29:50 10° ENE
Cosmos 1703 2.9 19:27:41 19° SSW 19:30:07 81° W 19:33:38 10° N
USA 305 2.0 19:26:50 10° WSW 19:30:27 90° ENE 19:33:13 10° ENE
USA 59 Rocket 0.1 19:28:48 10° NW 19:32:04 59° NE 19:36:17 10° ESE
Cosmos 2344 4.1 19:24:42 10° NW 19:32:34 67° SW 19:42:08 13° SSE
OPS 6432 4.4 19:29:41 10° NW 19:33:07 71° NE 19:35:38 15° SE
Cosmos 407 Rocket 3.5 19:30:47 16° S 19:34:50 65° ESE 19:39:54 10° NNE
ATLAS 3B R/B 3.9 19:27:27 10° NW 19:35:08 51° NNE 19:42:42 10° E
Cosmos 1844 Rocket 3.3 19:31:36 18° S 19:35:27 42° ESE 19:40:46 10° NE
Cosmos 1844 4.3 19:36:11 18° S 19:39:49 40° ESE 19:44:58 10° NE
Cosmos 1892 2.1 19:38:50 22° SSW 19:40:36 74° WNW 19:43:37 10° N
CZ-4C R/B 3.7 19:38:19 10° N 19:41:29 45° WNW 19:44:07 13° SW
Cosmos 2251 Rocket 3.9 19:38:20 18° S 19:42:05 51° ESE 19:47:17 10° NNE
Cosmos 2228 Rocket 3.1 19:39:49 17° SSW 19:43:12 82° W 19:47:40 10° N
Cosmos 1782 Rocket 4.5 19:42:18 10° N 19:46:30 41° ENE 19:49:51 15° SE
Cosmos 1703 Rocket 4.2 19:45:22 20° SSE 19:48:01 43° E 19:52:07 10° NNE
NOSS 3-1 (A) 4.0 19:41:52 10° NW 19:48:46 85° SW 19:57:17 10° SE
Cosmos 540 Rocket 3.6 19:46:33 10° NNW 19:51:38 62° WSW 19:55:08 20° S
Cosmos 1707 Rocket 3.9 19:51:01 15° SSW 19:54:27 58° WNW 19:58:44 10° N
ATLAS 2AS CENTAUR R/B 3.8 19:50:20 17° SSE 19:54:28 29° ESE 20:00:13 10° ENE
Landsat 5 3.5 19:50:42 10° NNE 19:55:01 82° WNW 19:58:05 18° SSW
SL-16 R/B 4.3 19:52:26 10° WNW 19:55:37 15° W 19:58:48 10° SW
Cosmos 1190 Rocket 4.4 19:52:12 19° S 19:55:47 51° ESE 20:00:54 10° NNE
Cosmos 1464 Rocket 4.1 19:50:38 10° NNW 19:56:55 73° W 20:01:40 18° S
Cosmos 468 Rocket 4.0 19:56:39 10° NNW 20:01:48 70° WSW 20:05:23 20° SSE
USA 307 3.7 20:01:07 23° SSE 20:01:54 25° SE 20:05:10 10° E
ALOS 2 2.9 19:59:40 20° S 20:02:32 56° W 20:06:52 10° NNW
Cosmos 841 Rocket 3.7 19:57:53 10° NNW 20:03:10 69° ENE 20:07:38 14° SE
Cosmos 2034 Rocket 4.0 19:57:29 10° N 20:03:45 90° W 20:08:32 18° S
Cosmos 1733 Rocket 4.5 20:01:13 10° NNW 20:05:00 29° W 20:08:04 13° SW
Cosmos 2227 Rocket 4.3 20:00:36 10° W 20:05:24 28° NW 20:10:14 10° NNE
Meteor 2-5 Rocket 4.3 20:02:54 18° SSE 20:07:08 51° E 20:12:53 10° NNE
Spot 1 4.4 20:04:05 10° NNE 20:09:01 75° ESE 20:12:35 19° S
Aureole 3 Rocket 3.6 20:06:19 10° NNW 20:09:07 31° W 20:11:03 18° SW
Cosmos 2263 Rocket 3.6 20:04:22 10° WSW 20:09:41 39° NW 20:15:02 10° NNE
Cosmos 1833 Rocket 3.6 20:08:24 10° NNW 20:13:52 47° NE 20:19:17 10° ESE
Cosmos 1606 3.5 20:13:56 10° N 20:16:45 32° ENE 20:18:39 17° SE
Cosmos 1943 4.5 20:13:05 10° NW 20:17:48 27° WSW 20:21:19 15° SSW
SeaSat 1 2.5 20:18:18 19° SSE 20:21:49 65° WSW 20:26:43 10° NW
NOSS 2-1 (D) 3.2 20:18:54 10° NW 20:22:17 62° SW 20:25:28 17° SSE
H-2A R/B 3.7 20:20:38 10° SE 20:23:49 29° ENE 20:27:02 10° N
Cosmos 1908 Rocket 4.0 20:21:01 10° NNW 20:25:15 50° W 20:28:00 20° SSW
Cosmos 1634 Rocket 4.0 20:29:45 10° N 20:36:06 88° E 20:41:00 17° S
OPS 8737 4.0 20:35:42 10° NW 20:38:47 84° NE 20:41:16 14° SE
Cosmos 968 Rocket 4.5 20:38:17 17° SSE 20:41:40 34° ESE 20:46:22 10° NE
USA 229 DEB 4.3 20:35:40 10° NW 20:42:52 70° NE 20:50:51 10° ESE
USA 229 4.3 20:35:47 10° NW 20:42:58 69° NE 20:50:56 10° ESE
Cosmos 2082 Rocket 4.2 20:38:17 10° NNW 20:43:11 29° NE 20:48:06 10° E
Cosmos 1271 Rocket 3.5 20:42:38 17° SW 20:45:05 41° WNW 20:48:33 10° N
Okean 1-7 4.5 20:43:20 11° SW 20:46:48 28° WNW 20:50:25 10° N
NOSS 2-1 (C) 3.8 20:47:05 10° WNW 20:50:23 39° SW 20:52:51 20° S
Cosmos 2278 Rocket 4.3 20:48:41 10° SE 20:51:43 15° E 20:54:45 10° ENE
NOSS 2-1 (E) 3.8 20:50:31 10° WNW 20:53:51 40° SW 20:56:33 19° SSE
SL-4 R/B 1.9 20:51:44 10° WSW 20:55:46 63° S 20:59:38 10° E
Cosmos 1328 3.5 20:53:47 23° SSW 20:55:53 87° W 20:59:32 10° N
CZ-2C R/B 2.9 20:51:37 12° SSE 20:56:24 67° ENE 21:01:43 10° N
PSLV R/B 4.5 20:53:27 10° N 20:57:30 42° WNW 21:00:58 14° SW
Cosmos 1943 Rocket 4.3 20:56:02 10° SE 20:58:54 15° E 21:01:48 10° ENE
USA 305 2.0 20:56:00 10° W 20:59:06 63° N 21:01:16 10° E
Cosmos 1300 Rocket 4.3 20:59:52 10° NNW 21:03:59 39° W 21:06:44 19° SSW
SJ 16-02 1.3 21:02:23 20° SSW 21:05:22 89° ESE 21:09:44 10° NNE
Cosmos 371 Rocket 3.8 21:02:34 18° S 21:05:50 47° ESE 21:10:29 10° NE
Cosmos 2151 Rocket 4.2 21:01:45 10° N 21:06:05 52° ENE 21:10:09 12° SSE
Cosmos 676 Rocket 4.1 21:04:26 16° SSW 21:08:42 74° WNW 21:13:58 10° NNE
Okean 2 Rocket 4.0 21:04:41 10° N 21:09:02 46° ENE 21:13:20 10° SSE
USA 234 3.5 21:04:39 10° ENE 21:11:01 51° SE 21:16:31 14° SSW
TIMED 4.5 21:14:42 19° SSW 21:17:45 83° WNW 21:22:04 10° NNE
Cosmos 1844 Rocket 3.6 21:13:52 10° WSW 21:19:19 47° NW 21:24:49 10° NNE
Okean 1 Rocket 4.0 21:15:15 10° N 21:19:34 46° ENE 21:23:51 10° SSE
USA 59 Rocket 1.2 21:17:57 10° WNW 21:20:56 23° SW 21:22:35 18° SSW
Cosmos 1844 4.5 21:18:31 10° WSW 21:23:52 47° NW 21:29:16 10° NNE
ATLAS 3B R/B 3.0 21:18:35 10° NW 21:26:30 76° SW 21:34:07 10° SE
Cosmos 1025 Rocket 4.4 21:23:35 11° SSE 21:27:13 31° E 21:31:01 10° NNE
Cosmos 1378 Rocket 3.7 21:26:34 17° S 21:29:53 68° E 21:34:16 10° NNE
USA 307 2.5 21:27:45 10° WSW 21:31:36 71° SSE 21:35:33 10° ENE
Cosmos 158 Rocket 4.2 21:28:56 10° NNW 21:34:05 69° ENE 21:39:03 10° SE
TiPS 4.5 21:33:05 21° SW 21:34:31 79° NW 21:36:53 10° NE
Cosmos 1340 Rocket 2.6 21:35:22 10° NNW 21:39:14 86° WSW 21:42:27 14° S
Cosmos 2279 Rocket 4.4 21:35:07 10° NNW 21:41:03 50° W 21:46:00 15° SSW
ATLAS 2AS CENTAUR R/B 2.8 21:37:43 11° SW 21:44:44 89° NW 21:51:40 10° NE
Cosmos 304 Rocket 3.8 21:44:19 16° SSW 21:48:08 83° WNW 21:52:56 10° NNE
Cosmos 1606 4.1 21:47:33 10° NW 21:49:36 17° W 21:51:00 13° WSW
MOZ.5/SAFIR/RUBIN 5/SL-8 4.1 21:47:13 10° SSE 21:51:45 65° ENE 21:56:18 10° N
IDEFIX/ARIANE 42P 3.1 21:50:40 10° NNE 21:55:49 53° E 22:00:46 11° S
Cosmos 1814 Rocket 4.2 21:50:41 10° NNW 21:55:54 56° WSW 22:01:04 10° S
SL-24 R/B - RUBIN 2 4.1 21:51:37 10° NW 21:56:22 44° WSW 22:00:38 10° SSE
Cosmos 1850 Rocket 4.1 21:52:20 14° SSW 21:56:45 73° WNW 22:01:56 10° NNE
Cosmos 1833 Rocket 3.2 21:52:31 10° NW 21:57:44 40° WSW 22:02:32 12° S
Cosmos 2242 Rocket 4.4 21:54:28 14° SW 21:58:02 40° WNW 22:02:15 10° N
H-2A R/B 3.3 21:55:56 16° SSW 21:58:10 29° W 22:01:24 10° NW
SeaSat 1 4.4 21:58:04 10° SW 22:00:04 12° W 22:02:04 10° WNW
H-2A R/B 3.2 21:56:32 10° NNE 22:00:10 33° E 22:03:48 10° SSE
MSX 4.3 21:57:03 10° NNE 22:02:43 57° ESE 22:08:20 10° S
Cosmos 1455 Rocket 3.5 22:01:37 10° N 22:05:58 61° ENE 22:10:14 10° SSE
Cosmos 1869 3.7 22:03:45 10° NNW 22:07:17 43° W 22:10:08 14° SSW
NPP 4.1 22:04:19 10° NNE 22:09:40 59° ESE 22:14:59 10° S
Cosmos 2221 Rocket 3.6 22:07:02 13° S 22:10:54 87° WNW 22:15:21 10° N
CZ-2C R/B 3.5 22:06:25 10° N 22:11:51 58° WNW 22:16:36 12° SW
Meteor 1-11 4.5 22:06:56 11° S 22:12:31 72° E 22:18:21 10° NNE
COSMOS 2406 3.8 22:12:12 10° NNW 22:17:55 62° NE 22:23:37 10° SE
Sich 1 Rocket 4.1 22:16:39 10° NNW 22:20:54 45° W 22:24:57 11° SSW
Cosmos 1812 2.2 22:18:35 10° N 22:21:48 86° ENE 22:24:58 10° S
Cosmos 968 Rocket 4.2 22:18:14 10° SW 22:23:15 47° NW 22:28:21 10° NNE
Cosmos 332 Rocket 3.9 22:20:43 12° SSW 22:25:14 75° ESE 22:30:04 10° NNE
Resurs 1-4 Rocket 3.0 22:21:09 10° NNE 22:26:11 45° E 22:31:13 10° S
USA 305 0.9 22:25:14 10° WNW 22:27:34 45° SSW 22:29:03 10° SE
Cosmos 2082 Rocket 2.2 22:22:11 10° NNW 22:27:55 82° WSW 22:33:38 10° SSE
Cosmos 1674 Rocket 4.1 22:24:21 12° SW 22:28:09 46° WNW 22:32:20 10° N
Cosmos 2228 4.1 22:24:27 10° N 22:28:25 43° ENE 22:32:21 10° SE
Timation 2 Rocket 3.9 22:23:54 11° SW 22:29:40 83° WNW 22:35:43 10° NNE
SL-4 R/B 1.8 22:29:40 10° W 22:33:38 65° S 22:37:24 10° ESE
USA 229 DEB 4.3 22:26:46 10° NW 22:33:45 45° WSW 22:41:19 10° S
USA 229 4.3 22:26:52 10° NW 22:33:51 46° WSW 22:41:26 10° S
Cosmos 2278 Rocket 2.3 22:29:17 11° SSW 22:34:49 73° ESE 22:40:29 10° NE
SL-16 R/B 3.7 22:31:01 10° SE 22:36:52 46° ENE 22:42:48 10° N
CZ-2C R/B 4.0 22:33:05 10° SW 22:37:09 23° W 22:41:21 10° NW
CZ-2D R/B 2.8 22:34:48 10° NNE 22:40:08 53° E 22:45:21 10° S
Cosmos 1943 Rocket 2.3 22:36:12 10° SSW 22:41:40 74° ESE 22:47:12 10° NE
SJ 16-02 3.5 22:41:16 10° W 22:44:12 17° NW 22:47:08 10° N
Cosmos 2098 Rocket 2.7 22:40:11 10° N 22:44:13 78° ENE 22:47:36 10° SSE
Okean 2 Rocket 4.5 22:43:08 10° NNW 22:46:45 24° W 22:50:21 10° SW
ALOS 3.3 22:44:25 10° NNE 22:48:46 41° E 22:53:05 10° S
Cosmos 1544 Rocket 4.2 22:45:38 10° N 22:49:54 56° ENE 22:54:07 10° SSE
Cosmos 1553 Rocket 4.0 22:46:12 10° N 22:52:19 88° W 22:58:25 10° S
USA 234 3.4 22:47:47 10° ENE 22:54:20 82° NNW 23:00:53 10° WSW
Cosmos 1666 2.7 22:54:40 10° SSE 22:56:06 23° E 22:57:33 10° NE
Okean 1 Rocket 4.4 22:53:29 10° NNW 22:57:06 25° W 23:00:43 10° SW
USA 307 2.8 22:57:47 10° W 23:01:48 78° N 23:05:34 10° E
Cosmos 1092 Rocket 4.2 22:57:37 10° SSW 23:03:50 64° WNW 23:10:10 10° N
Cosmos 1025 Rocket 4.0 23:00:49 10° SW 23:04:39 33° WNW 23:08:32 10° N
